Palmdale, CA

11:24 PM PDT on June 24, 2017 (GMT -0700)
Palmdale Af Plant 42

Weather History for KPMD - August, 2013

Change the Weather History Date:

Wednesday, August 7, 2013

  Actual Average Record
Temperature  
Mean Temperature 78 °F 82 °F  
Max Temperature 90 °F 99 °F 110 °F (1997)
Min Temperature 66 °F 66 °F 51 °F (1976)
Degree Days  
Heating Degree Days 0 0  
Month to date heating degree days 0 0  
Since 1 June heating degree days 0 7  
Since 1 July heating degree days 0 0  
Cooling Degree Days 13 17  
Month to date cooling degree days 98 125  
Year to date cooling degree days 1363 1103  
Since 1 June cooling degree days 1132 933  
Growing Degree Days 28 (Base 50)    
Moisture  
Dew Point 30 °F    
Average Humidity 19    
Maximum Humidity 31    
Minimum Humidity 7    
Precipitation  
Precipitation 0.00 in 0.00 in 0.21 in (1968)
Month to date precipitation 0.00 0.02  
Year to date precipitation 0.95 5.44  
Since 1 July precipitation 0.09  
Snow  
Snow 0.00 in - 0.00 in (1973)
Month to date snowfall 0.0  
Since 1 June snowfall 0.0  
Since 1 July snowfall 0.0  
Snow Depth 0.00 in    
Sea Level Pressure  
Sea Level Pressure 29.95 in    
Wind  
Wind Speed 15 mph (WSW)    
Max Wind Speed 29 mph    
Max Gust Speed 35 mph    
Visibility 10 miles    
Events      
T = Trace of Precipitation, MM = Missing Value Source: NWS Daily Summary

Daily Weather History Graph

Daily Weather History Graph

Search for Another Location

Airport or City:

Trip Planner

Search our weather history database for the weather conditions in past years. The results will help you decide how hot, cold, wet, or windy it might be!

Date:

Astronomy

Aug. 07, 2013 Rise Set
Actual Time 6:07 AM PDT 7:48 PM PDT
Civil Twilight 5:40 AM PDT 8:15 PM PDT
Nautical Twilight 5:07 AM PDT 8:48 PM PDT
Astronomical Twilight 4:32 AM PDT 9:22 PM PDT
Moon 6:55 AM PDT (8/7) 8:04 PM PDT (8/7)
Length of Visible Light 14h 35m
Length of Day
13h 41m
New Moon, 1% of the Moon is Illuminated
Aug 7
New Moon
Aug 14
First Quarter
Aug 20
Full
Aug 28
Last Quarter
Sep 5
New

Hourly Weather History & Observations

Time (PDT) Temp. Dew Point Humidity Pressure Visibility Wind Dir Wind Speed Gust Speed Precip Events Conditions
12:53 AM 72.0 °F 30.9 °F 22% 29.96 in 10.0 mi SW 19.6 mph - N/A   Clear
1:53 AM 70.0 °F 33.1 °F 26% 29.95 in 10.0 mi SW 11.5 mph - N/A   Clear
2:53 AM 70.0 °F 30.9 °F 24% 29.95 in 10.0 mi SW 15.0 mph - N/A   Clear
3:53 AM 72.0 °F 27.0 °F 19% 29.94 in 10.0 mi West 10.4 mph - N/A   Clear
4:53 AM 68.0 °F 30.0 °F 24% 29.95 in 10.0 mi West 3.5 mph - N/A   Clear
5:53 AM 66.9 °F 30.9 °F 26% 29.96 in 10.0 mi WSW 12.7 mph - N/A   Clear
6:53 AM 68.0 °F 25.0 °F 20% 29.97 in 10.0 mi West 6.9 mph - N/A   Clear
7:53 AM 73.9 °F 21.9 °F 14% 29.98 in 10.0 mi SW 15.0 mph - N/A   Clear
8:53 AM 78.1 °F 23.0 °F 13% 29.99 in 10.0 mi WSW 17.3 mph - N/A   Clear
9:53 AM 81.0 °F 21.0 °F 11% 29.98 in 10.0 mi SW 10.4 mph - N/A   Clear
10:53 AM 84.9 °F 19.0 °F 9% 29.98 in 10.0 mi WSW 18.4 mph - N/A   Clear
11:53 AM 87.1 °F 17.1 °F 8% 29.97 in 10.0 mi West 21.9 mph - N/A   Clear
12:53 PM 89.1 °F 17.1 °F 7% 29.96 in 10.0 mi WSW 21.9 mph - N/A   Clear
1:53 PM 89.1 °F 23.0 °F 9% 29.94 in 10.0 mi WSW 25.3 mph 31.1 mph N/A   Clear
2:53 PM 90.0 °F 27.0 °F 10% 29.94 in 10.0 mi WSW 19.6 mph 27.6 mph N/A   Clear
3:53 PM 88.0 °F 30.9 °F 13% 29.93 in 10.0 mi WSW 20.7 mph 26.5 mph N/A   Clear
4:53 PM 87.1 °F 34.0 °F 15% 29.92 in 10.0 mi West 23.0 mph 27.6 mph N/A   Clear
5:53 PM 84.0 °F 39.0 °F 20% 29.92 in 10.0 mi WSW 18.4 mph - N/A   Clear
6:53 PM 81.0 °F 41.0 °F 24% 29.93 in 10.0 mi WSW 18.4 mph - N/A   Clear
7:53 PM 75.9 °F 43.0 °F 31% 29.94 in 10.0 mi WSW 15.0 mph - N/A   Clear
8:53 PM 73.9 °F 39.0 °F 28% 29.96 in 10.0 mi SW 10.4 mph - N/A   Clear
9:53 PM 73.0 °F 36.0 °F 26% 29.96 in 10.0 mi SW 16.1 mph - N/A   Clear
10:53 PM 72.0 °F 36.0 °F 27% 29.95 in 10.0 mi WSW 9.2 mph - N/A   Clear
11:53 PM 70.0 °F 37.0 °F 30% 29.95 in 10.0 mi SW 9.2 mph - N/A   Clear